[[{"header":{"parameterUnit":"m.s-1","parameterCategory":1,"la1":30.2991,"la2":30.254,"lo1":-89.0895,"lo2":-89.0444,"dy":0.0017,"dx":0.0017,"nx":28,"ny":28,"refTime":"2025-11-07T09:00:00:Z","depth":0,"parameterNumber":2,"parameterNumberName":"U-component_of_WINDS"},"data":[0,0,0,0,0,0,0,0,0,0,0,0,0,0,0,0,0,0,0,0,0,0,0,0,0,0,0,0,0,0,0,0,0,0,0,0,0,0,0,0,0,0,0,0,0,0,0,0,0,0,0,0,0,0,0,0,0,0,-0.2393,-0.2393,0,-0.2447,-0.2448,-0.2448,-0.2487,-0.2487,-0.2487,-0.2488,-0.2542,-0.2543,-0.2544,0,0,0,0,0,0,0,0,0,0,0,0,0,-0.232,-0.2321,-0.2393,-0.2393,-0.2394,-0.2447,-0.2448,-0.2448,-0.2487,-0.2487,-0.2488,-0.2488,-0.2542,-0.2543,-0.2545,0,0,0,0,0,0,0,0,0,0,0,0,0,-0.2361,-0.2322,-0.2393,-0.242,-0.2423,-0.2447,-0.2448,-0.2448,-0.2487,-0.2487,-0.2488,-0.2488,-0.2541,-0.2543,-0.2545,-0.2546,0,0,-0.255,-0.2551,0,0,0,0,0,0,0,0,-0.2358,-0.2363,-0.2415,-0.2418,-0.2421,-0.2461,-0.2442,-0.2481,-0.2487,-0.2462,-0.2488,-0.2488,-0.2515,-0.2519,-0.2528,-0.2548,-0.2551,-0.255,-0.2551,-0.2552,-0.2552,0,0,0,0,0,0,0,-0.2356,-0.2361,-0.2414,-0.2416,-0.2419,-0.2428,-0.2435,-0.245,-0.2485,-0.2465,-0.2467,-0.2473,-0.2516,-0.2526,-0.2529,-0.2551,-0.255,-0.2552,-0.2553,-0.2553,-0.2573,-0.2573,0,0,0,0,0,0,-0.2349,-0.2359,-0.2412,-0.2416,-0.239,-0.2429,-0.2436,-0.2447,-0.2485,-0.2491,-0.2473,-0.2475,-0.2523,-0.2527,-0.2531,-0.2534,-0.2552,-0.2554,-0.2555,-0.2574,-0.2573,-0.2573,0,0,0,0,0,0,-0.2347,-0.2353,-0.241,-0.2388,-0.2396,-0.243,-0.2442,-0.2448,-0.2458,-0.2491,-0.2498,-0.2476,-0.2523,-0.2529,-0.2541,-0.2536,-0.2554,-0.2556,-0.2575,-0.2574,-0.2573,-0.2539,0,0,0,0,0,0,-0.2345,-0.2352,-0.2354,-0.2388,-0.2397,-0.242,-0.2442,-0.2449,-0.2461,-0.2464,-0.2496,-0.2502,-0.2524,-0.2539,-0.2543,-0.2539,-0.2557,-0.2575,-0.2574,-0.2573,-0.2541,-0.2537,-0.2534,0,0,0,0,0,-0.2342,-0.2342,-0.2354,-0.236,-0.24,-0.242,-0.2425,-0.2451,-0.246,-0.2461,-0.2483,-0.2501,-0.2536,-0.254,-0.2545,-0.2541,-0.2576,-0.2574,-0.2573,-0.2542,-0.2538,-0.2534,0,0,0,0,0,0,-0.2307,-0.2347,-0.2361,-0.2372,-0.2392,-0.2426,-0.2429,-0.2446,-0.2463,-0.2466,-0.2496,-0.2503,-0.2512,-0.2528,-0.2532,-0.2543,-0.2558,-0.2558,-0.2532,-0.2528,-0.2525,-0.2521,-0.2559,0,0,0,0,0,-0.2301,-0.2314,-0.2349,-0.2355,-0.2365,-0.2395,-0.2405,-0.2422,-0.2445,-0.2453,-0.2476,-0.2496,-0.2511,-0.2521,-0.2537,-0.2543,-0.255,-0.2543,-0.2539,-0.2537,-0.2536,-0.2538,-0.2535,-0.2569,-0.2569,-0.2569,0,0,-0.2288,-0.2311,-0.2318,-0.2349,-0.2367,-0.2379,-0.2402,-0.2415,-0.2424,-0.2455,-0.2468,-0.2485,-0.251,-0.2518,-0.2523,-0.2532,-0.2528,-0.2535,-0.2533,-0.2534,-0.2537,-0.2533,-0.2531,-0.2568,-0.2568,-0.2569,0,0,-0.227,-0.229,-0.2297,-0.2314,-0.234,-0.236,-0.2361,-0.2393,-0.2405,-0.2419,-0.2442,-0.2453,-0.2479,-0.2495,-0.2507,-0.2493,-0.2509,-0.2497,-0.2479,-0.2481,-0.2479,-0.2476,-0.247,-0.2467,-0.2496,-0.2496,-0.2496,0,-0.2251,-0.2271,-0.2298,-0.2309,-0.2321,-0.235,-0.2356,-0.2371,-0.2401,-0.2408,-0.2417,-0.2449,-0.2468,-0.248,-0.2476,-0.2485,-0.2487,-0.2493,-0.2477,-0.2475,-0.2473,-0.2467,-0.2465,-0.2494,-0.2495,-0.2495,-0.2495,0,-0.2245,-0.2258,-0.226,-0.2288,-0.23,-0.2309,-0.2336,-0.2345,-0.2361,-0.238,-0.2392,-0.2415,-0.2435,-0.244,-0.2456,-0.2453,-0.2457,-0.2471,-0.2487,-0.2468,-0.2462,-0.2461,-0.2492,-0.2492,-0.2493,-0.2493,0,0,-0.2208,-0.2249,-0.225,-0.2262,-0.2292,-0.2302,-0.2311,-0.2331,-0.2337,-0.2357,-0.2364,-0.2384,-0.2397,-0.241,-0.2428,-0.243,-0.2415,-0.2443,-0.2444,-0.2436,-0.2411,-0.24,-0.2397,-0.2426,-0.2426,-0.2426,-0.2408,0,-0.2194,-0.2212,-0.2236,-0.2245,-0.2257,-0.2283,-0.2291,-0.2309,-0.2326,-0.2338,-0.2356,-0.237,-0.2386,-0.2393,-0.2396,-0.2416,-0.241,-0.2418,-0.2432,-0.2432,-0.2424,-0.2394,-0.2383,-0.2366,-0.2407,-0.2407,-0.2406,0,-0.2181,-0.2198,-0.2208,-0.2236,-0.2241,-0.2248,-0.2267,-0.2278,-0.2299,-0.2311,-0.2324,-0.2343,-0.2352,-0.2367,-0.2379,-0.2383,-0.239,-0.2401,-0.2401,-0.2402,-0.2417,-0.2394,-0.2361,-0.2358,-0.2404,-0.2404,-0.2404,0,-0.2151,-0.2177,-0.2186,-0.2196,-0.2228,-0.2231,-0.2245,-0.2267,-0.2276,-0.2292,-0.2299,-0.2316,-0.2325,-0.2337,-0.236,-0.2368,-0.2369,-0.2385,-0.2378,-0.2377,-0.2377,-0.2376,-0.2343,-0.2383,-0.2383,-0.2383,-0.2383,0,-0.2133,-0.2138,-0.2173,-0.2178,-0.2184,-0.221,-0.2215,-0.2231,-0.2249,-0.2257,-0.2281,-0.2288,-0.2318,-0.2328,-0.2346,-0.2352,-0.2357,-0.2365,-0.237,-0.2363,-0.2361,-0.2367,-0.2369,-0.2382,-0.2382,-0.2382,-0.2382,0,-0.2101,-0.2125,-0.2136,-0.2165,-0.2172,-0.2175,-0.22,-0.2205,-0.2223,-0.2232,-0.2236,-0.2263,-0.2276,-0.23,-0.232,-0.2332,-0.2333,-0.2342,-0.2326,-0.2329,-0.2319,-0.2319,-0.2288,-0.2285,-0.2327,-0.2327,-0.2327,0,-0.2088,-0.2092,-0.2121,-0.2128,-0.214,-0.2152,-0.2161,-0.2187,-0.2195,-0.2218,-0.2221,-0.2235,-0.2248,-0.2267,-0.2288,-0.2303,-0.2311,-0.2299,-0.2314,-0.2305,-0.2309,-0.2308,-0.2308,-0.2296,-0.2295,-0.2295,-0.2294,0,-0.2061,-0.2072,-0.2085,-0.2101,-0.2111,-0.2126,-0.2141,-0.2145,-0.2174,-0.2182,-0.2195,-0.2205,-0.2225,-0.2238,-0.2255,-0.2269,-0.2285,-0.2289,-0.2288,-0.2281,-0.2271,-0.2274,-0.2316,-0.229,-0.229,-0.2291,-0.2291,-0.2291,-0.2037,-0.2041,-0.2061,-0.2074,-0.2088,-0.2101,-0.2107,-0.2125,-0.2136,-0.2154,-0.2168,-0.218,-0.2198,-0.2223,-0.2235,-0.2244,-0.2252,-0.225,-0.225,-0.2249,-0.2245,-0.227,-0.2247,-0.2247,-0.2247,-0.2247,-0.2248,0,-0.201,-0.2024,-0.2036,-0.2056,-0.2065,-0.208,-0.2097,-0.2104,-0.2114,-0.213,-0.2142,-0.2155,-0.2168,-0.2189,-0.2204,-0.2206,-0.2214,-0.2209,-0.2208,-0.2211,-0.2238,-0.2237,-0.2202,-0.2202,-0.2202,-0.2202,-0.2202,-0.2202,-0.1997,-0.2004,-0.2017,-0.203,-0.2044,-0.2055,-0.2063,-0.2075,-0.2088,-0.2102,-0.2112,-0.2126,-0.2144,-0.2159,-0.2171,-0.2177,-0.218,-0.2172,-0.218,-0.2205,-0.2209,-0.2213,-0.2212,-0.2173,-0.2173,-0.2152,-0.2152,-0.2152]},{"header":{"parameterUnit":"m.s-1","parameterCategory":1,"la1":30.2991,"la2":30.254,"lo1":-89.0895,"lo2":-89.0444,"dy":0.0017,"dx":0.0017,"nx":28,"ny":28,"refTime":"2025-11-07T09:00:00:Z","depth":0,"parameterNumber":3,"parameterNumberName":"V-component_of_WINDS"},"data":[0,0,0,0,0,0,0,0,0,0,0,0,0,0,0,0,0,0,0,0,0,0,0,0,0,0,0,0,0,0,0,0,0,0,0,0,0,0,0,0,0,0,0,0,0,0,0,0,0,0,0,0,0,0,0,0,0,0,4.9255,4.9255,0,4.9232,4.9232,4.9231,4.9193,4.9193,4.9192,4.9191,4.9161,4.9161,4.9161,0,0,0,0,0,0,0,0,0,0,0,0,0,4.9264,4.9264,4.9255,4.9255,4.9254,4.9232,4.9232,4.9231,4.9193,4.9193,4.9192,4.9191,4.9161,4.9161,4.9161,0,0,0,0,0,0,0,0,0,0,0,0,0,4.9252,4.9264,4.9255,4.9233,4.9231,4.9232,4.9232,4.9231,4.9194,4.9192,4.9191,4.9191,4.9162,4.9161,4.9161,4.918,0,0,4.916,4.916,0,0,0,0,0,0,0,0,4.9253,4.9252,4.9236,4.9234,4.9232,4.9215,4.9224,4.9214,4.9194,4.9207,4.9191,4.919,4.9179,4.9178,4.9175,4.9179,4.9177,4.916,4.916,4.916,4.916,0,0,0,0,0,0,0,4.9254,4.9253,4.9245,4.9236,4.9233,4.9224,4.9221,4.9222,4.9199,4.9206,4.9203,4.9202,4.9178,4.9176,4.9174,4.9177,4.916,4.916,4.916,4.916,4.9202,4.9203,0,0,0,0,0,0,4.9259,4.9254,4.9246,4.9245,4.924,4.9224,4.9221,4.9221,4.9199,4.9195,4.9202,4.92,4.9177,4.9175,4.9173,4.9199,4.916,4.916,4.916,4.92,4.9202,4.9203,0,0,0,0,0,0,4.9259,4.9258,4.9247,4.9249,4.9247,4.9225,4.9225,4.9221,4.9219,4.9196,4.9192,4.9204,4.9176,4.9174,4.9181,4.9197,4.916,4.916,4.9199,4.9201,4.9203,4.9247,0,0,0,0,0,0,4.9259,4.9259,4.9265,4.9249,4.9247,4.9255,4.9226,4.9221,4.9219,4.9216,4.9197,4.9193,4.9175,4.9181,4.918,4.9196,4.9159,4.9197,4.92,4.9202,4.9244,4.9251,4.9256,0,0,0,0,0,4.926,4.9276,4.9266,4.9265,4.9255,4.9256,4.9255,4.9235,4.9221,4.9228,4.9215,4.9194,4.9195,4.9182,4.9181,4.9197,4.9196,4.9199,4.9202,4.9242,4.9249,4.9256,0,0,0,0,0,0,4.929,4.9273,4.9262,4.9273,4.9268,4.925,4.9258,4.9243,4.9239,4.9235,4.9209,4.9206,4.9217,4.9207,4.9193,4.9218,4.9193,4.9196,4.9224,4.9231,4.9237,4.9239,4.9159,0,0,0,0,0,4.93,4.9303,4.9287,4.9299,4.9297,4.9279,4.9278,4.9265,4.9256,4.9252,4.9239,4.923,4.923,4.9229,4.9227,4.9243,4.9241,4.9253,4.9259,4.9264,4.9267,4.9281,4.9288,4.9212,4.9212,4.9212,0,0,4.9316,4.9307,4.931,4.9305,4.9299,4.9304,4.9276,4.928,4.9285,4.9252,4.926,4.9251,4.9239,4.9253,4.9258,4.9245,4.9288,4.9268,4.9272,4.9272,4.9285,4.9292,4.9298,4.9214,4.9214,4.9214,0,0,4.935,4.9343,4.9355,4.9351,4.9343,4.9332,4.9335,4.9322,4.9316,4.9324,4.9302,4.9306,4.9303,4.9298,4.9295,4.9336,4.9318,4.9335,4.9366,4.9379,4.9386,4.9391,4.941,4.9416,4.9338,4.9338,4.9338,0,4.9371,4.9379,4.9362,4.9371,4.9371,4.9347,4.936,4.9356,4.9347,4.9347,4.9334,4.9336,4.9325,4.9341,4.9352,4.9348,4.9353,4.9337,4.9386,4.9391,4.9396,4.9414,4.942,4.9341,4.934,4.934,4.934,0,4.9408,4.9415,4.9425,4.9423,4.9424,4.9434,4.9419,4.9422,4.9411,4.9401,4.9413,4.9401,4.9399,4.9401,4.9387,4.9416,4.9409,4.9391,4.9366,4.9406,4.9423,4.9429,4.9344,4.9343,4.9343,4.9342,0,0,4.9456,4.945,4.9454,4.9456,4.9449,4.9454,4.9465,4.9467,4.9472,4.9468,4.9478,4.9481,4.9467,4.9464,4.9449,4.9461,4.95,4.9442,4.9442,4.9457,4.9538,4.9554,4.9562,4.9489,4.949,4.949,4.954,0,4.9491,4.9512,4.95,4.9523,4.9532,4.9512,4.9522,4.952,4.9513,4.9519,4.951,4.9514,4.9493,4.9492,4.9503,4.9493,4.9517,4.9489,4.95,4.95,4.9506,4.9569,4.9584,4.9631,4.9546,4.9547,4.9548,0,4.9532,4.9537,4.9562,4.9561,4.9564,4.9574,4.9578,4.9583,4.9582,4.9576,4.9577,4.9562,4.9574,4.955,4.9569,4.9551,4.9555,4.9552,4.9553,4.9555,4.9528,4.9576,4.9645,4.9654,4.9557,4.9556,4.9555,0,4.957,4.9581,4.96,4.9601,4.9599,4.9608,4.9607,4.9604,4.9609,4.9612,4.9615,4.9618,4.9621,4.9624,4.9611,4.9594,4.9634,4.9606,4.9631,4.9632,4.9641,4.9641,4.9716,4.9639,4.9639,4.9639,4.9639,0,4.9611,4.9628,4.9618,4.963,4.965,4.9637,4.9657,4.9654,4.9654,4.9665,4.9647,4.9657,4.9639,4.9648,4.9638,4.9659,4.9658,4.9656,4.9653,4.9659,4.966,4.9662,4.966,4.9641,4.964,4.964,4.9639,0,4.9655,4.9649,4.9669,4.9669,4.9669,4.9685,4.9684,4.9695,4.969,4.9705,4.9708,4.9698,4.9709,4.9698,4.9705,4.9699,4.9729,4.9719,4.973,4.9729,4.9756,4.9755,4.9837,4.9849,4.9762,4.9763,4.9763,0,4.9682,4.9696,4.97,4.9708,4.971,4.9722,4.9729,4.9718,4.9726,4.973,4.9742,4.9753,4.9761,4.978,4.9773,4.9781,4.9774,4.9803,4.9775,4.9783,4.978,4.9781,4.9784,4.9809,4.9809,4.981,4.9811,0,4.9732,4.9731,4.9742,4.9755,4.9765,4.9773,4.9779,4.9787,4.9776,4.9786,4.98,4.9807,4.982,4.9832,4.984,4.9839,4.9825,4.982,4.9827,4.9834,4.9842,4.9843,4.9749,4.9818,4.9817,4.9817,4.9817,4.9816,4.9771,4.9785,4.9793,4.9808,4.9813,4.9822,4.9835,4.9835,4.9847,4.986,4.9852,4.987,4.9874,4.9884,4.9886,4.99,4.9888,4.9897,4.99,4.9903,4.991,4.9839,4.9901,4.9901,4.99,4.99,4.99,0,4.9823,4.9829,4.9843,4.9857,4.9871,4.986,4.9869,4.988,4.9898,4.9904,4.9915,4.9935,4.9948,4.9946,4.9959,4.9972,4.9966,4.9976,4.9976,4.9977,4.9917,4.9912,4.9981,4.9981,4.9981,4.9981,4.9981,4.9981,4.9852,4.9878,4.9879,4.9909,4.9914,4.9935,4.9942,4.9952,4.9958,4.9982,4.9995,4.9995,5.0,5.0014,5.0028,5.0027,5.0034,5.0047,5.0044,4.9988,4.998,4.9973,4.9968,5.0048,5.0048,5.0104,5.0105,5.0105]}]]